Temperature
15 15 15 15 15 15 15 15 15 15 15 15 15 15 15 15 15 15 15 15 15 15 14 14 14 14 14 15 15 15 15 15 15 15 15 15 15 14 15 15 14 14 14
15 15 15 15 15 15 15 15 15 15 15 15 15 15 15 15 14 14 14 14 14 14 14 14 14 14 14 14 14 14 14 14 14 14 14 14 14 14 14 14 14 14 14
15 15 15 15 15 15 15 15 15 15 15 15 15 15 14 14 14 14 14 14 14 14 14 14 14 14 14 14 14 14 14 14 14 14 14 14 14 14 14 14 14 14 14
15 15 15 14 15 15 15 15 14 14 14 14 14 14 14 14 14 14 14 14 14 14 14 14 14 14 14 14 14 14 14 14 14 14 14 14 14 14 14 14 14 14 14
15 15 14 14 14 14 14 14 14 14 14 14 14 14 14 14 14 14 14 14 14 14 13 13 13 13 13 13 13 13 13 14 13 14 14 14 14 14 14 14 14 14 13
14 14 14 14 14 14 14 14 14 14 14 14 14 14 14 14 14 14 14 14 13 13 13 13 13 13 13 13 13 13 13 13 13 13 13 14 14 13 13 13 13 13 13
14 14 14 14 14 14 14 14 14 14 14 14 14 14 14 14 14 14 14 14 13 13 13 13 13 13 13 13 13 13 13 13 13 13 13 13 13 13 13 13 13 13 13
14 14 14 14 14 14 14 14 13 13 13 13 13 13 13 13 13 13 13 13 13 13 13 13 13 13 13 13 13 13 13 13 13 13 13 13 13 13 13 13 13 13 13
13 13 13 13 13 13 13 13 13 13 13 13 13 13 13 13 13 13 13 13 13 13 13 13 12 12 12 12 13 12 12 13 13 13 13 13 13 12 12 12 12 12 12
13 13 13 13 13 13 13 13 13 13 13 13 13 13 13 13 13 13 13 13 13 13 12 12 12 12 12 12 12 12 12 12 12 12 12 12 12 12 12 12 12 12 12
12 12 13 13 13 13 13 12 12 12 12 12 12 12 12 12 13 12 12 12 12 12 12 12 12 12 12 12 12 12 12 12 12 12 12 12 12 12 12 12 12 12 12
12 12 12 12 12 12 12 12 12 12 12 12 12 12 12 12 12 12 12 12 12 12 12 12 12 12 12 12 12 12 12 12 12 12 12 12 11 11 11 12 12 11 11
12 12 12 12 12 12 12 12 12 12 12 12 12 12 12 12 12 12 12 12 12 11 11 12 12 12 12 12 12 11 11 11 11 11 11 11 11 11 11 11 11 11 11
11 11 11 11 11 11 11 11 11 11 11 11 11 11 11 11 11 11 11 11 11 11 11 11 11 11 11 11 11 11 11 11 11 11 11 11 11 11 11 11 11 11 11
11 11 11 11 11 11 11 11 11 11 11 11 11 11 11 11 11 11 11 11 11 11 11 11 11 11 11 11 11 11 11 11 11 11 11 11 11 11 11 11 10 10 10
11 11 11 10 10 10 10 10 10 10 10 10 10 10 10 10 10 10 10 10 10 10 10 10 10 10 10 10 10 10 10 10 10 10 10 10 10 10 10 10 10 10 10
11 10 10 10 10 10 10 10 10 10 10 10 10 10 10 10 10 10 10 10 10 10 10 10 10 10 10 10 10 10 10 10 10 10 10 10 10 10 10 10 9 9 9
10 10 10 10 9 9 9 9 9 9 9 9 9 9 9 9 10 9 9 9 9 9 9 9 9 9 9 9 9 9 9 9 9 9 9 9 9 9 9 9 9 9 9
10 10 10 9 9 9 9 9 9 9 9 9 9 9 9 9 9 9 9 9 9 9 8 8 8 9 9 9 9 9 9 9 9 9 9 9 9 9 8 8 8 8 8
9 9 9 9 9 9 9 9 9 8 8 8 8 8 8 8 8 8 8 8 8 8 8 8 8 8 8 8 8 8 8 8 8 8 8 8 8 8 8 8 8 8 8
9 9 9 9 8 8 8 8 8 8 8 8 8 8 8 8 8 8 8 8 8 8 7 7 7 7 7 7 7 7 8 8 7 7 7 7 7 7 7 7 7 7 7
8 8 8 8 8 8 8 8 8 8 8 8 8 8 8 7 7 7 7 7 7 7 7 7 7 6 6 6 6 6 6 6 7 7 7 7 7 7 7 7 7 7 7
8 8 8 8 8 7 7 7 7 7 7 7 7 7 7 7 7 7 7 6 6 6 6 6 6 6 6 6 5 5 5 5 5 6 6 6 6 6 6 6 6 6 6
8 8 8 7 7 7 7 7 7 7 7 7 7 7 7 6 6 6 6 6 6 6 6 5 5 5 5 5 5 5 5 5 4 5 5 5 5 5 5 5 5 5 5
7 7 7 7 7 6 6 6 6 6 6 6 6 6 6 6 6 5 5 5 5 5 5 5 5 5 4 4 4 4 4 4 4 4 4 4 4 5 4 4 4 4 4
7 7 6 6 6 6 6 6 6 5 5 5 5 5 5 5 5 5 5 5 5 5 4 4 4 4 4 4 4 4 4 3 4 3 3 3 4 4 4 4 4 4 4
Wind_Speed
3 6 11 11 11 12 12 12 12 12 12 13 13 13 13 14 14 13 12 12 12 12 12 11 12 12 12 12 13 13 12 12 12 12 12 12 12 12 11 11 11 10 11
6 9 12 12 12 12 12 12 12 12 12 12 13 13 13 13 13 12 12 12 12 11 12 12 12 11 11 12 12 11 11 11 11 11 11 10 10 10 10 10 10 9 10
9 10 11 12 12 12 12 12 11 11 11 11 12 12 12 12 12 12 12 11 11 11 11 11 11 11 10 10 11 10 10 10 10 10 9 8 8 9 10 10 10 10 9
10 10 10 12 12 12 12 12 12 11 11 11 11 12 12 11 12 11 11 11 11 11 11 11 11 10 10 9 9 9 9 10 9 9 7 6 6 8 8 9 9 9 8
8 9 10 12 12 12 12 11 12 11 11 11 11 11 11 11 11 11 11 10 10 10 10 10 10 9 9 8 8 8 9 9 9 8 7 6 5 6 7 7 7 7 7
6 8 10 11 11 12 11 11 11 11 11 11 11 11 11 11 11 11 10 10 10 9 9 9 8 8 8 7 7 7 8 8 8 8 7 6 4 5 6 6 6 5 5
6 7 9 10 11 11 11 11 11 11 11 10 10 10 10 10 10 9 9 9 9 9 8 8 7 7 7 6 6 6 7 7 7 6 5 5 4 4 4 4 4 4 3
8 7 7 9 9 10 11 11 11 10 10 10 9 9 9 9 9 9 8 8 8 8 8 7 7 7 6 5 5 5 6 6 5 4 4 3 3 3 3 3 2 2 2
8 7 6 7 7 8 9 10 10 9 9 9 9 8 9 9 8 8 8 7 8 8 7 7 6 6 5 5 5 5 6 5 5 4 3 2 1 1 2 1 1 1 1
6 6 5 6 6 6 6 8 9 8 8 8 8 8 7 7 7 7 6 6 6 6 6 6 5 4 4 4 4 5 5 5 4 3 2 1 0 0 1 1 0 0 0
4 4 4 5 5 6 5 5 7 8 7 7 7 7 6 6 6 5 5 6 6 5 5 5 4 4 4 3 3 3 4 4 3 2 1 0 1 1 1 1 1 1 1
4 3 2 4 4 5 4 4 3 5 5 6 5 6 5 5 5 5 5 5 4 4 4 3 3 3 3 3 3 3 3 2 2 1 1 2 2 2 2 2 2 2 2
5 4 3 3 3 4 3 3 3 3 4 4 5 5 5 5 4 4 4 3 3 2 2 2 2 3 3 2 2 2 2 1 1 1 2 3 3 4 4 4 4 3 3
5 5 4 3 3 3 3 3 3 2 3 3 3 5 5 4 3 3 2 2 2 2 1 2 2 2 2 1 1 1 1 1 0 1 2 4 4 5 5 4 4 4 4
5 4 4 4 4 3 3 2 3 2 2 3 3 4 4 3 2 2 2 2 2 2 1 1 1 1 1 1 1 1 1 1 1 2 3 4 5 5 5 5 5 4 5
5 4 4 4 4 4 3 2 2 2 2 4 3 3 4 4 3 3 2 2 1 1 2 1 1 1 0 0 1 1 1 2 2 3 3 4 5 5 6 6 6 5 5
6 5 4 4 4 4 3 3 3 2 3 3 3 3 3 3 3 3 2 2 1 1 2 2 1 1 0 1 1 2 1 2 3 3 3 4 4 5 5 6 6 6 6
6 5 4 4 4 4 3 3 2 3 3 3 3 3 3 3 3 3 2 1 1 2 2 1 0 0 1 1 2 2 2 2 3 3 3 3 3 3 4 5 6 6 6
6 6 5 4 4 4 3 3 2 2 2 2 3 2 2 3 3 3 2 1 2 2 1 0 0 0 1 2 2 2 2 2 2 3 2 2 2 3 3 4 5 7 7
5 5 5 4 4 3 3 2 2 2 2 2 2 2 2 2 3 3 2 1 2 1 1 1 0 0 1 1 2 3 3 3 2 2 2 2 2 2 3 4 4 5 7
4 4 4 4 3 3 3 3 2 2 1 1 1 2 3 2 2 2 1 1 1 2 2 2 1 0 1 1 1 2 3 3 2 2 1 1 2 2 3 4 4 4 5
5 5 4 4 3 3 3 3 2 2 2 1 1 2 2 2 2 1 2 1 1 1 1 2 1 1 0 0 1 1 2 3 3 2 2 2 2 2 2 4 4 4 5
5 5 4 4 3 3 3 3 3 2 1 1 0 0 1 2 2 1 2 1 1 2 2 2 2 3 2 1 0 1 1 2 3 2 2 1 2 2 3 4 4 5 6
5 4 4 4 3 3 3 4 4 3 2 2 2 1 0 1 1 1 2 1 1 1 2 2 2 2 2 2 1 1 2 2 1 3 3 2 3 3 3 4 4 5 5
3 3 3 3 3 3 3 4 4 3 2 1 1 1 1 1 1 1 1 1 2 2 2 2 2 2 3 3 2 1 1 1 2 2 4 3 3 3 3 3 3 4 5
2 3 3 4 3 3 3 3 4 4 3 2 2 2 2 1 1 1 1 2 2 2 2 3 3 4 4 3 3 2 2 2 2 2 3 4 4 4 3 3 3 3 4
Wind_Direction
170 163 151 144 137 131 125 122 118 115 112 109 107 103 102 100 100 101 101 106 108 107 105 101 98 95 93 92 89 86 82 79 79 78 78 80 80 80 79 78 76 71 74
154 151 145 142 138 134 129 125 121 118 115 111 108 107 106 105 103 101 101 103 104 106 107 104 100 98 96 94 92 89 85 82 80 77 74 76 78 79 79 80 80 77 74
134 141 142 140 135 132 130 127 125 122 119 115 111 108 108 108 107 105 103 102 103 102 102 102 102 100 98 95 92 91 89 87 82 76 72 70 73 80 80 79 78 77 75
130 132 139 140 136 133 131 129 127 125 122 119 115 111 109 109 110 108 106 103 102 102 101 102 101 99 98 97 94 89 90 90 83 75 70 68 75 85 82 81 75 73 71
121 126 138 142 141 137 133 131 129 128 125 120 117 115 113 110 109 107 106 103 101 100 102 103 101 97 95 94 90 89 91 92 82 72 67 68 74 90 89 83 76 73 70
116 121 134 138 141 138 134 132 130 131 128 125 122 120 119 115 110 107 104 103 102 101 102 103 100 97 94 89 85 89 94 93 81 71 67 68 70 89 89 84 80 74 68
116 114 129 134 140 142 138 134 131 128 129 129 127 125 123 120 115 110 108 106 105 104 103 107 104 100 96 90 84 89 95 91 82 73 65 64 69 86 90 90 84 78 67
123 114 122 133 134 142 141 137 136 134 131 129 128 128 126 123 121 120 116 112 110 108 104 104 104 99 94 89 85 89 89 85 77 83 69 67 76 89 91 98 91 82 65
107 103 101 118 129 134 141 141 139 140 135 130 127 130 129 127 126 125 121 115 114 112 109 104 107 101 92 85 81 87 88 81 72 78 74 70 77 94 84 89 93 86 68
96 93 90 93 99 111 130 142 141 141 138 133 129 125 127 126 125 125 123 119 117 115 113 107 103 104 98 87 79 83 82 78 66 64 61 60 49 316 5 341 306 255 21
102 95 97 96 95 97 108 126 142 142 140 135 131 130 125 116 115 122 125 123 124 121 118 111 106 97 86 79 79 75 73 77 68 62 45 296 252 261 288 282 272 251 252
145 136 113 113 108 106 111 96 111 134 132 129 122 123 122 121 122 121 125 127 130 129 125 119 106 94 79 65 62 59 63 71 65 50 264 273 267 269 276 270 259 250 259
162 153 148 135 117 111 104 108 98 117 121 124 127 127 122 118 118 111 109 113 113 122 104 100 80 74 79 79 67 62 58 77 68 347 278 271 272 270 272 268 260 251 255
154 159 158 140 125 115 113 113 112 117 127 125 133 133 127 113 106 105 104 104 94 104 89 67 60 61 69 78 95 66 48 89 358 286 274 272 281 280 276 269 263 257 258
152 150 154 143 138 130 115 112 108 111 135 136 130 130 132 121 126 113 106 106 100 106 108 70 66 75 61 24 5 11 317 275 281 280 276 271 275 282 280 274 271 267 268
155 153 147 138 138 128 128 127 115 103 127 119 116 126 128 129 124 120 112 104 106 128 135 131 122 107 15 354 331 310 270 264 268 272 268 272 273 277 279 276 273 272 270
159 148 141 138 123 128 134 135 113 100 118 113 117 122 125 127 127 123 119 117 102 122 113 94 79 62 360 339 306 301 280 271 265 264 263 263 273 277 276 275 275 275 271
150 146 145 138 130 131 131 128 111 106 112 120 125 126 128 123 124 116 113 126 118 100 88 106 124 95 327 321 307 293 287 277 264 262 262 261 269 271 280 283 282 281 282
158 153 147 139 146 143 135 126 118 104 108 117 121 121 125 120 125 119 113 111 120 91 72 151 92 165 296 310 298 291 288 275 262 266 267 262 262 257 267 284 285 284 281
159 154 148 144 147 142 131 117 105 92 94 102 114 123 129 127 133 124 103 106 111 125 160 176 178 123 251 278 305 308 296 282 269 246 251 260 268 264 271 280 283 287 286
149 148 151 149 148 142 137 145 145 159 156 152 113 122 128 129 128 116 105 110 128 173 198 196 190 175 301 341 350 321 311 297 269 253 255 265 281 283 287 284 279 277 286
166 161 153 153 155 161 156 158 154 154 157 165 102 88 117 130 135 127 118 162 184 179 200 206 185 180 269 123 126 357 319 320 315 305 279 256 274 302 304 301 286 279 282
168 170 168 167 161 162 147 128 113 91 79 90 0 183 113 143 148 143 139 153 195 187 210 218 195 185 199 241 185 165 197 251 307 304 308 297 293 285 294 296 287 285 283
188 174 160 161 157 159 150 153 156 168 188 213 211 203 170 135 165 177 168 169 196 200 214 227 206 201 183 215 262 252 230 203 231 298 308 313 306 293 292 301 295 289 287
178 165 157 149 152 157 158 165 170 186 199 189 173 191 218 213 193 205 200 191 208 213 220 227 218 210 200 204 215 242 262 266 233 242 282 300 308 291 288 290 290 289 291
134 140 148 146 156 159 164 173 181 188 184 171 193 214 234 232 225 232 221 216 222 221 225 234 223 215 214 210 211 214 222 227 236 235 261 284 291 292 293 286 280 283 287
Height
1518 1519 1521 1522 1523 1524 1525 1526 1526 1527 1528 1529 1529 1530 1530 1531 1531 1532 1532 1532 1533 1533 1533 1534 1534 1534 1535 1535 1535 1535 1535 1535 1536 1536 1536 1536 1536 1536 1537 1537 1537 1537 1537
1517 1519 1520 1522 1523 1524 1525 1526 1527 1527 1528 1529 1529 1530 1531 1531 1531 1532 1532 1533 1533 1533 1534 1534 1534 1535 1535 1535 1535 1536 1536 1536 1536 1536 1537 1537 1537 1537 1537 1537 1538 1538 1538
1516 1518 1520 1521 1523 1524 1525 1526 1526 1527 1528 1529 1529 1530 1531 1531 1531 1532 1532 1533 1533 1533 1534 1534 1534 1535 1535 1536 1536 1536 1536 1536 1536 1537 1537 1537 1537 1537 1537 1538 1538 1538 1538
1516 1518 1520 1521 1523 1524 1525 1525 1526 1527 1528 1528 1529 1530 1530 1531 1531 1532 1532 1533 1533 1533 1534 1534 1535 1535 1535 1536 1536 1536 1536 1536 1537 1537 1537 1537 1537 1538 1538 1538 1538 1538 1538
1516 1517 1519 1521 1522 1523 1524 1525 1526 1527 1527 1528 1529 1529 1530 1531 1531 1532 1532 1533 1533 1533 1534 1534 1535 1535 1535 1536 1536 1536 1536 1536 1536 1537 1537 1537 1537 1538 1538 1538 1538 1538 1538
1516 1517 1518 1520 1522 1523 1524 1524 1525 1526 1527 1528 1528 1529 1530 1530 1531 1531 1532 1532 1533 1533 1534 1534 1535 1535 1535 1535 1536 1536 1536 1536 1536 1536 1537 1537 1537 1537 1537 1538 1538 1538 1538
1515 1517 1518 1519 1521 1522 1523 1524 1525 1525 1526 1527 1528 1528 1529 1530 1530 1531 1531 1532 1532 1533 1533 1534 1534 1535 1535 1535 1535 1536 1536 1536 1536 1536 1536 1536 1537 1537 1537 1537 1537 1537 1537
1515 1516 1517 1519 1520 1521 1522 1523 1524 1525 1525 1526 1527 1528 1528 1529 1529 1530 1531 1531 1532 1532 1533 1533 1534 1534 1534 1534 1535 1535 1535 1535 1535 1536 1536 1536 1536 1536 1536 1536 1536 1536 1536
1514 1515 1516 1518 1519 1520 1521 1522 1523 1524 1524 1525 1526 1526 1527 1528 1528 1529 1530 1530 1531 1531 1532 1532 1532 1533 1533 1533 1533 1534 1534 1534 1535 1535 1535 1535 1535 1535 1535 1535 1535 1535 1535
1513 1514 1515 1516 1517 1518 1519 1521 1522 1522 1523 1524 1524 1525 1526 1526 1527 1528 1528 1529 1530 1530 1530 1531 1531 1531 1532 1532 1532 1533 1533 1533 1533 1534 1534 1534 1534 1534 1534 1534 1534 1534 1533
1511 1512 1514 1515 1516 1517 1518 1519 1520 1520 1521 1522 1523 1523 1524 1525 1525 1526 1527 1527 1528 1529 1529 1529 1530 1530 1530 1531 1531 1531 1531 1532 1532 1532 1532 1533 1533 1533 1533 1533 1532 1532 1532
1509 1510 1512 1513 1513 1514 1516 1516 1518 1518 1519 1520 1520 1522 1522 1523 1524 1524 1525 1526 1526 1527 1527 1528 1528 1528 1529 1529 1529 1530 1530 1530 1530 1531 1531 1531 1531 1531 1531 1531 1530 1530 1530
1507 1508 1509 1510 1511 1512 1513 1514 1515 1515 1517 1518 1519 1519 1520 1521 1522 1522 1523 1524 1525 1525 1526 1526 1526 1527 1527 1527 1528 1528 1528 1528 1528 1529 1529 1529 1529 1529 1529 1529 1528 1528 1528
1505 1506 1507 1508 1509 1510 1511 1511 1512 1513 1514 1516 1517 1518 1518 1519 1519 1520 1521 1522 1523 1523 1524 1524 1524 1525 1525 1525 1526 1526 1526 1526 1526 1526 1526 1526 1526 1526 1526 1526 1526 1526 1525
1503 1504 1505 1506 1506 1507 1508 1509 1510 1511 1512 1513 1514 1515 1516 1516 1517 1518 1518 1520 1520 1521 1521 1522 1522 1522 1523 1523 1523 1523 1523 1523 1524 1524 1524 1524 1524 1524 1524 1523 1523 1523 1522
1501 1501 1502 1503 1504 1505 1506 1507 1508 1509 1510 1510 1512 1513 1514 1514 1515 1516 1516 1517 1518 1519 1519 1519 1520 1520 1520 1520 1521 1521 1521 1521 1521 1521 1521 1521 1521 1521 1521 1521 1520 1520 1519
1498 1499 1500 1501 1502 1503 1504 1505 1506 1506 1507 1508 1509 1511 1511 1512 1513 1513 1514 1515 1515 1516 1517 1517 1517 1517 1517 1517 1517 1518 1518 1518 1518 1518 1518 1518 1518 1517 1517 1517 1517 1517 1516
1495 1496 1497 1499 1500 1501 1502 1503 1504 1504 1505 1506 1507 1508 1509 1509 1510 1511 1511 1512 1513 1513 1514 1514 1514 1514 1514 1514 1514 1514 1514 1514 1514 1515 1515 1514 1514 1514 1514 1514 1513 1513 1513
1492 1494 1495 1496 1497 1498 1499 1500 1501 1502 1502 1503 1504 1505 1505 1506 1507 1508 1508 1509 1509 1510 1510 1511 1511 1510 1510 1510 1510 1511 1511 1511 1511 1511 1511 1511 1511 1511 1511 1510 1510 1510 1509
1490 1491 1492 1493 1494 1496 1497 1498 1499 1500 1500 1501 1501 1501 1502 1503 1504 1505 1506 1506 1506 1507 1507 1507 1507 1507 1507 1507 1507 1507 1507 1507 1507 1507 1507 1508 1508 1507 1507 1507 1506 1506 1505
1487 1488 1489 1490 1491 1492 1493 1494 1495 1496 1496 1497 1498 1498 1499 1500 1501 1502 1502 1503 1503 1503 1504 1504 1504 1504 1504 1504 1504 1503 1503 1503 1503 1503 1504 1504 1504 1504 1503 1503 1502 1502 1501
1483 1484 1485 1486 1488 1489 1489 1491 1492 1493 1493 1494 1494 1495 1496 1497 1498 1498 1499 1500 1500 1500 1500 1500 1500 1500 1500 1501 1501 1500 1499 1500 1499 1499 1500 1500 1500 1500 1500 1499 1499 1498 1497
1480 1481 1482 1483 1485 1486 1487 1488 1489 1490 1490 1491 1491 1492 1493 1494 1495 1495 1496 1496 1497 1497 1497 1497 1497 1497 1497 1497 1498 1499 1498 1496 1496 1495 1495 1496 1496 1496 1496 1495 1495 1494 1494
1476 1478 1479 1480 1482 1483 1484 1484 1485 1485 1486 1487 1488 1489 1489 1490 1491 1492 1492 1493 1493 1493 1493 1493 1493 1493 1494 1494 1494 1495 1496 1495 1495 1492 1492 1492 1492 1492 1492 1491 1491 1490 1490
1474 1475 1476 1477 1479 1480 1481 1482 1482 1483 1484 1484 1485 1486 1487 1487 1488 1488 1489 1490 1490 1489 1489 1489 1489 1490 1490 1490 1490 1491 1491 1491 1491 1490 1488 1488 1488 1488 1487 1487 1486 1486 1485
1472 1473 1474 1475 1476 1477 1478 1479 1480 1480 1481 1481 1482 1483 1484 1484 1484 1485 1486 1486 1486 1485 1485 1485 1485 1486 1486 1486 1486 1487 1487 1487 1487 1487 1485 1484 1483 1483 1483 1483 1482 1481 1481